User: anonymous   Login
Location: Caltech
(34.1382°N, 118.1253°W)
Time: 08:47:22
(UTC-07:00)
Language:

SO-50 - Orbit

View from above orbital plane
View from above orbital plane
View from above satellite
View from above satellite

Ground track
Ground track

The orbit data is extracted from the following two-line orbital elements,

1 27607U 02058C   17174.91718929 -.00000015 +00000-0 +18211-4 0  9997
2 27607 064.5557 104.9962 0029623 093.1007 267.3485 14.75333447779974
Epoch (UTC): 23 June 2017 22:00:45
Eccentricity: 0.0029623
inclination: 64.5557°
perigee height: 623 km
apogee height: 665 km
right ascension of ascending node: 104.9962°
argument of perigee: 93.1007°
revolutions per day: 14.75333447
mean anomaly at epoch: 267.3485°
orbit number at epoch: 77997

The dashed part of the orbit path shows where the satellite is in the earth's shadow,  

DLR